Lexington Weather

Lexington, Massachusetts, USA

34°F
4/16/2021 10:59am 
  • Lexington Conditions: Light snow, Mist, Overcast
  • Temperature: 34.0°F / 1.1°CWarmer 0.2°F than last hour.
  • Dew Point: 32.7°FIncreased 0.2°Fsince last hour.
  • Relative Humidity: 95
  • Wind: Wind from N N 4 mph, 10-min avg: 2 mph, gust: 4 mph
  • Barometer: 29.47 inFalling 0.03  inHg/hr Falling Slowly
  • Visibility: 1 mile
  • Snow Today: 1.7 in
  •   

Regional Weather Roundup
for Boston / Norton, MA

        
000
ASUS41 KBOX 101104
RWRBOX

REGIONAL WEATHER ROUNDUP
NATIONAL WEATHER SERVICE BOSTON/NORTON MA
700 AM EDT SAT APR 10 2021

NOTE:  "FAIR" INDICATES FEW OR NO CLOUDS BELOW 12,000 FEET WITH NO 
SIGNIFICANT WEATHER AND/OR OBSTRUCTIONS TO VISIBILITY.

MAZALL-101200-
EASTERN MASSACHUSETTS
  
CITY           SKY/WX    TMP DP  RH WIND       PRES   REMARKS
BOSTON         MOCLDY    50  43  77 S6        30.02F                  
BEVERLY        NOT AVBL                                               
LAWRENCE       PTCLDY    47  43  86 SW5       30.02F                  
BEDFORD        MOCLDY    49  43  80 SE3       30.00F                  
BLUE HILL        N/A     46  43  89 SW9       29.99F                  
NORWOOD        CLOUDY    48  43  82 SE3       30.01F                  
MARSHFIELD     CLOUDY    45  45 100 S3        30.03F                  
PLYMOUTH       FOG       43  42  97 SW3       30.03F VSB 1/4          
TAUNTON        CLOUDY    47  44  90 CALM      30.03F                  
NEW BEDFORD    CLOUDY    45  44  97 SE3       30.03F                  
$$

MAZALL-101200-
CAPE COD AND THE ISLANDS
  
CITY           SKY/WX    TMP DP  RH WIND       PRES   REMARKS
FALMOUTH       FOG       45  45 100 W12       30.05F VSB 1/2          
HYANNIS        FOG       45  44  97 SW3       30.04F VSB 1            
CHATHAM        FOG       44  44 100 SW5       30.07F VSB 1/2          
PROVINCETOWN   LGT RAIN  42  42 100 MISG        N/A  VSB 1/4          
NANTUCKET      FOG       42  42 100 W5        30.07F VSB 1/4          
MARTHAS VNYRD  FOG       45  44  97 SW5       30.05F VSB 1/4          
$$
 
MAZALL-101200-
CENTRAL AND WESTERN MASSACHUSETTS
  
CITY           SKY/WX    TMP DP  RH WIND       PRES   REMARKS
WORCESTER      CLOUDY    52  41  66 W8        30.00F                  
FITCHBURG      CLOUDY    53  45  74 NW7       29.99F                  
ORANGE         FOG       46  46 100 CALM      30.01F VSB 1/4          
SPRINGFIELD    PTCLDY    46  43  88 CALM      30.00F                  
WESTFIELD      CLEAR     47  45  93 CALM      30.01F                  
NORTH ADAMS    MOCLDY    46  41  82 CALM      30.02R                  
PITTSFIELD     CLEAR     46  41  82 CALM      30.00R                  
$$
 
RIZALL-101200-
RHODE ISLAND
  
CITY           SKY/WX    TMP DP  RH WIND       PRES   REMARKS
PROVIDENCE     MOCLDY    47  45  93 S5        30.03F                  
NEWPORT        CLOUDY    46  45  96 MISG      30.02F                  
BLOCK ISLAND   CLOUDY    44  43  96 SW6       30.05F                  
SMITHFIELD     MOCLDY    46  46 100 SW3       30.02F                  
WESTERLY       CLOUDY    45  44  97 SW6       30.04F                  
$$
 
CTZALL-101200-
CONNECTICUT
  
CITY           SKY/WX    TMP DP  RH WIND       PRES   REMARKS
BRADLEY INTL   MOCLDY    49  44  83 S6        30.02S                  
HARTFORD       MOCLDY    50  45  81 MISG      30.03F                  
BRIDGEPORT     CLOUDY    49  45  86 CALM      30.05R                  
DANBURY        CLOUDY    52  45  77 CALM      30.05R                  
GROTON         CLOUDY    47  45  93 CALM      30.04F                  
NEW HAVEN      CLOUDY    49  47  93 SW3       30.04F                  
CHESTER        CLOUDY    46  46 100 CALM      30.03F FOG              
MERIDEN        CLOUDY    49  44  83 CALM      30.04F                  
WILLIMANTIC    CLEAR     47  44  90 S3        30.03F                  
OXFORD         CLOUDY    48  48 100 S3        30.04S                  
$$

MEZ002-015-021-024-NHZ003-005-008-011-012-014-VTZ005-008-101200-
NORTHERN NEW ENGLAND
  
CITY           SKY/WX    TMP DP  RH WIND       PRES   REMARKS
PORTLAND ME    PTCLDY    41  40  96 W3        30.00S                  
BANGOR ME      PTCLDY    44  42  93 CALM      29.99F                  
CONCORD NH     CLEAR     40  38  93 NE3       30.00F                  
MANCHESTER NH  MOCLDY    47  41  80 CALM      29.99S                  
NASHUA NH      CLOUDY    46  46 100 CALM      30.00F                  
PORTSMOUTH NH  PTCLDY    41  40  96 CALM      30.01F                  
JAFFREY NH     MOCLDY    49  46  90 S5        30.00F                  
KEENE NH       CLEAR     46  45  96 SW3       30.00F                  
BURLINGTON VT  MOCLDY    56  48  74 CALM      29.97S                  
MT. WASHINGTON PTCLDY    39  34  81 W10         N/A                   
$$

NYZ052-076-101200-
EASTERN NEW YORK
  
CITY           SKY/WX    TMP DP  RH WIND       PRES   REMARKS
ALBANY         MOCLDY    49  43  80 S7        30.01R                  
NEW YORK CITY  CLOUDY    53  46  77 E3        30.05R                  
$$
 
ANZALL-101200-
MARINE OBSERVATIONS
  
STATION/POSITION TIME  TEMP    WIND        PRES    VSBY  WAVE
                       AIR SEA DIR/SP/G                  HT/PER
                 (UTC) (F)     (DEG/KT/KT) (MB)    (MI)  (FT/S)
BOSTON BUOY      1040   44 44  180/  6/  8 1017.5F
BUZZARDS BAY     1000          250/  8/  8 1019.1F
NANTUCKET SOUND  1040      46                N/A
MASS BAY-STELLWA 1004   45     210/ 10/ 12 1016.0F  1 7/8  4/11
ISLE OF SHOALS   1000   48     210/ 12/ 12 1015.9S
S OF BLOCK IS    1026      46                N/A           3/11
$$

......................KEY.........................
  SKY/WX - SKY CONDITION/PRESENT WEATHER
  TMP    - TEMPERATURE IN FAHRENHEIT
  DWPT   - DEWPOINT IN FAHRENHEIT
  RH     - RELATIVE HUMIDITY IN PERCENT
  WIND   - DIRECTION AND SPEED IN MPH
  PRES   - MEAN SEA LEVEL PRESSURE IN INCHES OF HG
  WCI    - WIND CHILL INDEX
  VSB    - VISIBILITY IN MILES
  HX     - HEAT INDEX
  TC     - TEMPERATURE IN CELSIUS
  VRB    - VARIABLE WIND DIRECTION
  N/A    - NOT AVAILABLE
  
      

Other recent Regional Weather Roundups

Fri Apr 16, 10:05am

Fri Apr 16, 9:04am

Fri Apr 16, 8:04am

Fri Apr 16, 7:04am

Fri Apr 16, 6:04am

Fri Apr 16, 5:04am

Fri Apr 16, 4:04am

Fri Apr 16, 3:04am

Fri Apr 16, 2:04am

Fri Apr 16, 1:04am

Fri Apr 16, 12:04am

Thu Apr 15, 11:05pm

Thu Apr 15, 10:04pm

Thu Apr 15, 9:04pm

Thu Apr 15, 8:04pm

Thu Apr 15, 7:05pm

Thu Apr 15, 6:04pm

Thu Apr 15, 5:05pm

Thu Apr 15, 4:04pm

Thu Apr 15, 3:05pm

Thu Apr 15, 2:04pm

Thu Apr 15, 1:05pm

Thu Apr 15, 12:04pm

Thu Apr 15, 11:04am

Thu Apr 15, 10:05am

Thu Apr 15, 9:04am

Thu Apr 15, 8:04am

Thu Apr 15, 7:04am

Thu Apr 15, 6:04am

Thu Apr 15, 5:04am

Thu Apr 15, 4:04am

Thu Apr 15, 3:04am

Thu Apr 15, 2:04am

Thu Apr 15, 1:04am

Thu Apr 15, 12:04am

Wed Apr 14, 11:04pm

Wed Apr 14, 10:04pm

Wed Apr 14, 9:04pm

Wed Apr 14, 8:04pm

Wed Apr 14, 7:04pm

Wed Apr 14, 6:04pm

Wed Apr 14, 5:05pm

Wed Apr 14, 4:04pm

Wed Apr 14, 3:05pm

Wed Apr 14, 2:04pm

Wed Apr 14, 1:05pm

Wed Apr 14, 12:04pm

Wed Apr 14, 11:04am

Wed Apr 14, 10:04am

Wed Apr 14, 9:04am

Wed Apr 14, 8:04am

Wed Apr 14, 7:04am

Wed Apr 14, 6:04am

Wed Apr 14, 5:04am

Wed Apr 14, 4:04am

Wed Apr 14, 3:04am

Wed Apr 14, 2:04am

Wed Apr 14, 1:04am

Wed Apr 14, 12:04am

Tue Apr 13, 11:04pm

Tue Apr 13, 10:05pm

Tue Apr 13, 9:05pm

Tue Apr 13, 8:05pm

Tue Apr 13, 7:04pm

Tue Apr 13, 6:04pm

Tue Apr 13, 5:05pm

Tue Apr 13, 4:04pm

Tue Apr 13, 3:04pm

Tue Apr 13, 2:05pm

Tue Apr 13, 1:04pm

Tue Apr 13, 12:05pm

Tue Apr 13, 11:05am

Tue Apr 13, 10:04am

Tue Apr 13, 9:04am

Tue Apr 13, 8:04am

Tue Apr 13, 7:04am

Tue Apr 13, 6:04am

Tue Apr 13, 5:04am

Tue Apr 13, 4:04am

Tue Apr 13, 3:04am

Tue Apr 13, 2:04am

Tue Apr 13, 1:04am

Tue Apr 13, 12:05am

Mon Apr 12, 11:04pm

Mon Apr 12, 10:04pm

Mon Apr 12, 9:04pm

Mon Apr 12, 8:04pm

Mon Apr 12, 7:05pm

Mon Apr 12, 6:04pm

Mon Apr 12, 5:04pm

Mon Apr 12, 4:04pm

Mon Apr 12, 3:05pm

Mon Apr 12, 2:04pm

Mon Apr 12, 1:05pm

Mon Apr 12, 12:04pm

Mon Apr 12, 11:04am

Mon Apr 12, 10:04am

Mon Apr 12, 9:04am

Mon Apr 12, 8:04am

Mon Apr 12, 7:04am

Mon Apr 12, 6:04am

Mon Apr 12, 5:04am

Mon Apr 12, 4:04am

Mon Apr 12, 3:04am

Mon Apr 12, 2:04am

Mon Apr 12, 1:05am

Mon Apr 12, 12:04am

Sun Apr 11, 11:04pm

Sun Apr 11, 10:04pm

Sun Apr 11, 9:04pm

Sun Apr 11, 8:04pm

Sun Apr 11, 7:04pm

Sun Apr 11, 6:05pm

Sun Apr 11, 5:05pm

Sun Apr 11, 4:04pm

Sun Apr 11, 3:05pm

Sun Apr 11, 2:05pm

Sun Apr 11, 1:05pm

Sun Apr 11, 12:04pm

Sun Apr 11, 11:05am

Sun Apr 11, 10:05am

Sun Apr 11, 9:04am

Sun Apr 11, 8:04am

Sun Apr 11, 7:04am

Sun Apr 11, 6:04am

Sun Apr 11, 5:04am

Sun Apr 11, 4:04am

Sun Apr 11, 3:04am

Sun Apr 11, 2:04am

Sun Apr 11, 1:05am

Sun Apr 11, 12:04am

Sat Apr 10, 11:05pm

Sat Apr 10, 10:04pm

Sat Apr 10, 9:04pm

Sat Apr 10, 8:04pm

Sat Apr 10, 7:05pm

Sat Apr 10, 6:04pm

Sat Apr 10, 5:04pm

Sat Apr 10, 4:04pm

Sat Apr 10, 3:04pm

Sat Apr 10, 2:05pm

Sat Apr 10, 1:04pm

Sat Apr 10, 12:04pm

Sat Apr 10, 11:04am

Sat Apr 10, 10:04am

Sat Apr 10, 9:04am

Sat Apr 10, 8:04am

Sat Apr 10, 6:04am

Sat Apr 10, 5:04am

Sat Apr 10, 4:04am

Sat Apr 10, 3:04am

Sat Apr 10, 2:04am

Sat Apr 10, 1:05am

Sat Apr 10, 12:04am

Fri Apr 9, 11:04pm

Fri Apr 9, 10:05pm

Fri Apr 9, 9:04pm

Fri Apr 9, 8:05pm

Fri Apr 9, 7:05pm

Fri Apr 9, 6:04pm

Fri Apr 9, 5:04pm

Fri Apr 9, 4:05pm

Fri Apr 9, 3:05pm

Fri Apr 9, 2:04pm

Fri Apr 9, 1:04pm

Fri Apr 9, 12:04pm

Fri Apr 9, 11:05am

Meta data:

ID: 436c5247-f74e-4be4-a6c3-99fb4990fc52
Link: https://api.weather.gov/products/436c5247-f74e-4be4-a6c3-99fb4990fc52